Vorticity
nan nan nan nan nan nan nan nan nan nan nan nan nan nan nan nan nan nan nan nan nan nan nan nan nan nan nan nan nan nan nan nan nan nan nan nan nan nan nan nan nan nan nan nan nan nan nan
nan 7 7 7 6 6 7 7 7 7 8 8 8 8 7 7 8 8 7 7 8 9 11 12 11 10 8 2 12 12 11 6 5 7 8 6 7 6 6 8 6 11 12 6 10 10 nan
nan 7 7 6 7 7 7 7 7 7 7 8 8 8 7 7 7 7 8 8 9 11 15 15 11 6 7 5 5 13 7 6 9 7 8 5 7 8 7 8 9 9 8 8 9 8 nan
nan 7 7 7 8 7 7 7 7 7 6 7 7 7 7 7 7 8 9 9 13 21 20 18 8 6 4 9 8 9 5 7 8 7 9 9 7 7 8 8 8 9 6 8 9 7 nan
nan 8 8 8 8 8 7 6 7 7 7 6 6 7 7 8 9 9 8 11 26 25 16 6 2 8 7 10 12 8 8 7 4 8 8 10 9 7 8 10 4 8 9 6 11 7 nan
nan 7 7 8 8 8 8 7 7 7 7 7 7 7 8 9 9 9 13 23 18 9 6 3 4 6 13 9 11 9 10 8 6 7 9 7 8 6 5 10 8 6 9 8 10 9 nan
nan 7 7 7 8 8 7 7 7 7 7 7 7 7 8 9 11 14 20 15 6 6 9 8 2 2 7 12 11 10 9 7 7 8 9 7 7 9 8 3 6 7 8 7 10 11 nan
nan 8 8 8 8 8 8 8 8 7 8 7 8 8 9 9 12 24 17 5 10 5 10 12 5 5 8 10 6 11 12 8 8 7 4 11 10 11 10 8 7 5 7 8 8 14 nan
nan 8 8 8 9 9 9 9 8 8 8 8 8 8 9 8 24 21 6 8 4 9 11 12 15 9 12 11 5 7 8 7 8 8 10 4 8 12 9 5 9 8 8 9 7 9 nan
nan 8 7 7 8 8 8 9 8 8 8 9 9 10 8 20 22 8 11 6 7 8 7 14 10 11 14 7 12 13 4 6 10 10 7 1 9 8 8 8 9 6 12 4 9 9 nan
nan 8 7 7 8 8 8 8 8 8 8 9 10 12 15 20 13 8 5 6 13 10 6 14 12 13 12 6 8 12 7 11 14 9 5 8 10 9 8 12 6 11 11 12 12 7 nan
nan 7 7 8 8 8 8 8 8 8 8 9 11 13 19 17 10 5 3 14 12 9 8 9 12 9 6 5 8 13 10 7 11 9 5 12 7 11 8 11 5 10 7 8 12 10 nan
nan 7 7 8 8 8 8 8 8 8 8 9 13 22 22 8 5 8 12 13 11 7 5 9 11 9 9 11 6 11 13 6 3 6 7 12 11 10 9 7 9 6 7 7 6 12 nan
nan 8 8 8 7 8 8 8 8 8 9 10 19 33 20 2 5 10 14 11 8 5 7 8 8 14 12 8 9 10 9 6 3 8 14 6 10 14 10 11 10 7 7 7 11 8 nan
nan 8 9 8 8 7 7 7 8 8 8 17 31 22 10 13 10 7 12 9 10 5 4 8 13 14 10 10 12 11 9 9 12 6 4 2 7 9 10 11 10 7 9 8 7 8 nan
nan 8 9 8 8 8 7 7 8 8 10 25 28 11 8 16 11 8 10 8 9 5 7 11 10 9 9 9 10 11 9 8 15 12 6 4 12 9 10 8 7 15 6 6 9 12 nan
nan 8 9 9 8 8 8 8 8 8 15 31 20 10 8 10 9 10 12 8 8 9 10 8 8 6 9 10 9 8 8 7 7 17 15 7 11 7 8 12 6 5 5 11 15 10 nan
nan 8 9 9 8 8 8 8 8 8 26 28 12 7 10 10 11 10 9 9 7 10 10 12 12 14 10 8 7 8 9 4 13 16 12 9 7 16 5 6 14 12 9 6 8 8 nan
nan 8 9 9 8 8 8 8 9 11 25 21 12 8 9 12 7 9 10 10 9 8 9 12 10 11 14 12 10 10 10 4 9 16 13 11 5 7 11 14 15 11 9 6 7 16 nan
nan 7 8 9 9 8 9 9 9 11 22 22 8 9 11 10 11 9 9 10 8 12 12 10 12 8 9 10 13 13 6 8 8 7 12 15 12 12 8 2 4 10 12 9 7 7 nan
nan 7 7 8 9 9 9 9 9 13 23 19 10 14 9 4 8 9 10 10 8 9 9 10 14 9 12 10 9 8 6 7 8 10 14 11 9 7 8 11 10 8 9 11 4 8 nan
nan 7 7 8 8 9 9 9 8 15 25 19 8 8 12 11 8 9 12 11 7 11 9 9 7 8 14 14 8 7 6 9 7 8 9 9 13 11 11 11 9 12 12 8 6 9 nan
nan 8 8 8 8 9 9 10 9 16 24 13 9 11 11 7 11 12 9 8 7 10 11 7 8 13 9 7 8 13 10 9 12 7 6 11 10 10 8 9 9 16 17 9 9 9 nan
nan 8 8 8 9 8 9 10 10 15 19 12 9 10 9 10 10 7 8 9 9 9 9 6 11 12 9 9 16 13 10 12 11 9 9 8 8 8 8 8 14 6 11 17 12 7 nan
nan 8 8 8 8 9 8 10 10 10 14 16 11 11 10 13 7 10 11 7 10 14 13 9 9 5 9 13 15 9 8 14 15 14 13 10 9 10 14 7 2 9 13 12 13 13 nan
nan 8 8 8 9 9 9 9 10 11 15 16 11 10 10 11 8 11 10 12 12 9 11 11 9 10 13 14 13 12 8 7 9 10 12 11 11 13 11 13 10 8 0 10 14 6 nan
nan 8 8 8 8 9 9 9 9 10 17 17 9 10 10 8 11 11 9 8 10 12 10 6 9 13 13 14 12 10 10 11 13 9 4 5 13 12 9 6 9 13 10 14 13 4 nan
nan 8 8 8 8 8 8 8 9 10 14 17 11 9 9 10 12 11 9 6 7 11 11 6 10 12 9 14 12 11 11 10 12 13 13 9 8 8 10 10 9 7 15 14 7 10 nan
nan nan nan nan nan nan nan nan nan nan nan nan nan nan nan nan nan nan nan nan nan nan nan nan nan nan nan nan nan nan nan nan nan nan nan nan nan nan nan nan nan nan nan nan nan nan nan
CAPE
6 5 4 6 4 2 0 1 3 3 5 3 2 3 3 2 2 1 1 1 1 2 2 1 2 0 0 0 0 0 462 29 0 0 0 0 0 0 0 0 58 50 425 2 330 454 438
1 0 0 1 0 1 1 1 1 2 4 3 3 2 2 2 2 1 1 2 2 2 3 1 0 0 0 0 0 0 0 0 0 0 0 0 0 0 0 0 0 0 411 558 610 232 272
0 0 0 0 1 1 1 1 1 3 3 3 2 2 2 2 1 2 2 2 3 2 2 1 1 0 0 0 0 0 0 0 0 0 0 0 0 0 0 0 173 164 446 75 332 417 368
4 3 3 2 1 1 0 1 1 1 2 2 2 1 1 1 1 2 3 4 1 2 1 0 1 0 0 0 0 0 0 0 0 0 0 0 0 0 0 0 61 137 1 0 3 582 643
5 5 6 6 3 3 3 1 1 2 1 0 1 1 1 1 4 4 4 1 0 0 2 2 0 0 0 0 0 0 0 0 0 0 0 0 0 0 0 0 0 0 7 4 5 326 634
4 4 3 4 5 6 5 4 4 3 3 2 2 3 4 5 5 3 1 0 1 0 0 0 0 0 0 0 0 0 0 0 0 0 0 0 0 0 0 0 0 0 32 30 20 20 596
5 5 5 5 5 8 8 6 4 4 4 3 3 4 5 4 3 2 0 0 0 0 0 0 0 0 0 0 0 0 0 0 0 0 0 0 0 0 0 0 0 0 0 0 0 0 168
6 7 6 5 5 5 5 4 5 6 7 5 4 4 3 3 1 1 0 0 0 0 0 0 0 0 0 0 0 0 0 0 0 0 0 0 0 0 0 0 0 0 0 0 0 1 128
4 4 4 5 4 6 6 7 10 8 5 4 4 3 3 1 0 0 0 0 0 0 0 0 0 0 0 0 0 0 0 0 0 0 0 0 0 0 0 0 0 0 0 0 0 13 103
1 2 4 1 2 3 5 7 8 6 3 2 3 3 2 1 0 0 0 0 0 0 0 0 0 0 0 0 0 0 0 0 0 0 0 0 0 0 0 0 0 0 0 0 0 0 0
4 5 4 5 5 5 6 7 5 3 1 2 2 4 0 1 0 0 0 0 0 0 0 0 0 0 0 0 0 0 0 0 0 0 0 0 0 0 0 0 0 0 0 0 0 0 0
4 3 4 5 4 4 5 4 2 1 0 1 1 1 2 0 0 0 0 0 0 0 0 0 0 0 0 0 0 0 0 0 0 0 0 0 0 0 0 0 0 0 0 0 0 0 0
4 2 2 3 4 4 4 3 0 0 0 0 0 0 0 0 0 0 0 0 0 0 0 0 0 0 0 0 0 0 0 0 0 0 0 0 0 0 0 0 0 0 0 0 0 0 0
3 2 5 6 4 2 2 1 0 0 0 0 0 0 1 0 0 0 0 0 0 0 0 0 0 0 0 0 0 0 0 0 0 0 0 0 0 0 0 0 0 0 0 0 0 0 0
3 4 5 4 4 2 1 0 0 0 0 0 0 0 0 0 0 0 0 0 0 0 0 0 0 0 0 0 0 0 0 0 0 0 0 0 0 0 0 0 0 0 0 0 0 0 0
4 3 4 5 5 2 1 0 0 0 0 0 0 0 0 0 0 0 0 0 0 0 0 0 0 0 0 0 0 0 0 0 0 0 0 0 0 0 0 0 0 0 0 0 0 0 0
5 4 4 8 8 6 4 0 0 0 0 0 0 0 0 0 0 0 0 0 0 0 0 0 0 0 0 0 0 0 0 0 0 0 0 0 0 0 0 0 0 0 0 0 0 0 0
5 4 8 6 6 6 4 0 0 0 0 0 0 0 0 0 0 0 0 0 0 0 0 0 0 0 0 0 0 0 0 0 0 0 0 0 0 0 0 0 0 0 0 0 0 0 0
3 3 7 7 6 8 4 0 0 0 0 0 0 0 0 0 0 0 0 0 0 0 0 0 0 0 0 0 0 0 0 0 0 0 0 0 0 0 0 0 0 0 0 0 0 0 0
3 3 4 5 6 9 5 0 0 0 0 0 0 0 0 0 0 0 0 0 0 0 0 0 0 0 0 0 0 0 0 0 0 0 0 0 0 0 0 0 0 0 0 0 0 0 0
2 2 4 3 3 8 5 0 0 0 0 0 0 0 0 0 0 0 0 0 0 0 0 0 0 0 0 0 0 0 0 0 0 0 0 0 0 0 0 0 0 0 0 0 0 0 0
1 3 4 3 2 6 6 1 0 0 0 0 0 0 0 0 0 0 0 0 0 0 0 0 0 0 0 0 0 0 0 0 0 0 0 0 0 0 0 0 0 0 0 0 0 0 0
1 3 6 4 3 5 4 4 0 0 0 0 0 0 0 0 0 0 0 0 0 0 0 0 0 0 0 0 0 0 0 0 0 0 0 0 0 0 0 0 0 0 0 0 0 0 0
0 2 7 4 4 4 5 8 5 0 0 0 0 0 0 0 0 0 0 0 0 0 0 0 0 0 0 0 0 0 0 0 0 0 0 0 0 0 0 0 0 0 0 0 0 0 0
0 2 5 4 5 3 6 5 8 0 0 0 0 0 0 0 0 0 0 0 0 0 0 0 0 0 0 0 0 0 0 0 0 0 0 0 0 0 0 0 0 0 0 0 0 0 0
2 3 4 3 6 5 7 7 3 12 0 0 0 0 0 0 0 0 0 0 0 0 0 0 0 0 0 0 0 0 0 0 0 0 0 0 0 0 0 2 1 0 0 1 0 0 0
3 3 1 1 5 8 7 8 7 4 9 0 0 0 0 0 0 0 0 0 0 0 0 0 0 0 0 0 0 0 0 0 0 0 0 0 0 0 0 0 0 0 0 8 4 0 0
3 2 0 0 1 5 6 5 11 6 12 0 0 0 0 1 0 0 0 0 0 0 0 0 0 0 0 0 0 0 0 0 0 0 0 0 0 0 0 0 1 0 15 87 0 0 0
3 0 0 0 2 4 4 4 3 7 20 0 0 0 0 0 0 0 0 0 0 0 0 0 0 0 0 0 0 0 0 0 0 3 0 29 2 4 15 0 0 15 10 2 2 0 0